Showing default

GALILEO 13 (26A), 41550

Orbit data source: Space-Track

GALILEO 13 (26A), 41550 is a payload satellite owned by GNSS Agency (ESA) that was launched on Tue, 24 May 2016 UTC via a SOYUZ-ST-B launch vehicle from the French Guiana (FRGUI). Payload-class satellites include a variety of spacecraft equipped with specific instruments for various scientific and technological missions. These include communications satellites like Starlink; space stations such as the ISS; scientific satellites like the Hubble; Earth observation satellites from companies like Planet Labs, Umbra, and HawkEye 360; GPS; miniature CubeSats for education and research; and military/defense satellites.

Loading next visibility...
Identifier
41550, 2016-030B
Orbit
Active
Last TLE update
22 hours ago
Origin
Manufacturer
OHB
Mission
Operational Civil Navigation
Bus & Motor
GALILEOSAT, AOCS
Mass
733 kg wet, 660 kg dry
Launch date (UTC)
2016-05-24 (9 years ago)
Launch vehicle
SOYUZ-ST-B
Launch site
French Guiana (FRGUI)
Object type
Payload
Rocket body
Debris
Shape & HBR
Box + 2 Pan, 14.71 m
Radar Cross Section
9.223 m², Large (>1 m²)

Expand to show TLE details & history

TLE from 22 hours ago
0 GALILEO 13 (26A)
1 41550U 16030B   25128.31069822 -.00000033  00000-0  00000-0 0  9991
2 41550  55.2290 232.8281 0002811 216.5360 143.4443  1.70474207 55769
Epoch: 2025-05-08T07:27Z
Definitive object data (Epoch: 2025-05-08T07:27:24.326Z)
Latitude
-0.00002°
Longitude
-105.42051°
Altitude
23,229.116 km
Speed
3.669 km/s
True Right ascension
15h 31m 15s
True Declination
0° 00' 00"
Sunlit
Object was in daylight at TLE epoch
Visualization TLE readout
Latitude
-26.02047°
Longitude
94.31101°
Altitude
23,221.374 km
Speed
3.67 km/s
Apparent Right ascension
04h 24m 59s
Apparent Declination
-29° 17' 20"
Sunlit
Object is in daylight
Visualization observer readout
Local Sidereal Time
13:58:43
Azimuth
278.134° WNW
Elevation
-58.34°
Doppler factor
1
Orbital elements
Apogee altitude
23,230.48 km
Perigee altitude
23,213.839 km
Semi-major axis
29,600.296 km
Eccentricity
0.0002811
Inclination
55.229°
RAAN
232.8281°
Arg. of periapsis
216.536°
True anomaly
143.46348°
Mean anomaly
143.4443°
Eccentric anomaly
143.45389°
Mean motion
0.42619 °/min
BSTAR
Unknown
Orbital period
844.7 mins
Loading maneuver chart data...
Loading SW <> Apogee altitude chart data...
Loading historical data...
Loading historical data...
Loading historical data...
Loading historical data...
Loading historical data...
Loading historical data...
Loading historical data...
Other satellites on launch #30 in the year 2016 (2016-05-24 UTC)

GALILEO 13 (26A) Visibility forecast

Observer location: undefined°, undefined°

Span
Click to sort rows by Start time (UTC) header in descending order
Start Az.
Max El. time (UTC)
Max El. Az.
Max El.
End time (UTC)
End Az.
488 mins2025-05-09 11:48:59.272Z255.975° W2025-05-09 16:33:59.272Z65.824° ENE44.915°2025-05-09 19:56:59.272Z169.156° S
83 mins2025-05-10 03:17:59.272Z65.469° ENE2025-05-10 03:58:59.272Z51.72° ENE12.526°2025-05-10 04:40:59.272Z38.566° NE
|